Hurghada, Egypt

10:48 AM EET on August 20, 2017 (GMT +0200)
Hurghada

Weather History for HEGN - May, 2014

Change the Weather History Date:

Tuesday, May 6, 2014

  Actual Average Record
Temperature  
Mean Temperature 94 °F -  
Max Temperature 103 °F 90 °F 103 °F (2014)
Min Temperature 84 °F 73 °F 68 °F (2004)
Cooling Degree Days 28    
Growing Degree Days 44 (Base 50)    
Moisture  
Dew Point 53 °F    
Average Humidity 28    
Maximum Humidity 55    
Minimum Humidity 11    
Precipitation  
Precipitation 0.00 in - - ()
Sea Level Pressure  
Sea Level Pressure 29.75 in    
Wind  
Wind Speed 11 mph ()    
Max Wind Speed 34 mph    
Max Gust Speed -    
Visibility 4.5 miles    
Events      
Averages and records for this station are not official NWS values.
T = Trace of Precipitation, MM = Missing Value Source: Averaged Metar Reports

Daily Weather History Graph

Daily Weather History Graph

Search for Another Location

Airport or City:

Trip Planner

Search our weather history database for the weather conditions in past years. The results will help you decide how hot, cold, wet, or windy it might be!

Date:

Astronomy

May. 06, 2014 Rise Set
Actual Time 5:02 AM EET 6:20 PM EET
Civil Twilight 4:38 AM EET 6:45 PM EET
Nautical Twilight 4:08 AM EET 7:15 PM EET
Astronomical Twilight 3:38 AM EET 7:45 PM EET
Moon 10:54 AM EET (5/6) No Moon Set
Length of Visible Light 14h 07m
Length of Day
13h 18m
Waxing Crescent, 43% of the Moon is Illuminated
May 6
Waxing Crescent
May 7
First Quarter
May 14
Full
May 21
Last Quarter
May 28
New

Hourly Weather History & Observations

Time (EET) Temp. Heat Index Dew Point Humidity Pressure Visibility Wind Dir Wind Speed Gust Speed Precip Events Conditions
12:00 AM 86.0 °F - 42.8 °F 22% 29.74 in - North 3.5 mph - N/A   Clear
1:00 AM 86.0 °F - 46.4 °F 25% 29.74 in - NNW 12.7 mph - N/A   Clear
2:00 AM 86 °F - 39 °F 11% 29.74 in 6 mi WNW 9.2 mph - -   Scattered Clouds
2:00 AM 86.0 °F - 39.2 °F 19% 29.74 in - WNW 9.2 mph - N/A   Clear
3:00 AM 86.0 °F - 44.6 °F 23% 29.74 in - NW 10.4 mph - N/A   Clear
4:00 AM 86.0 °F - 46.4 °F 25% 29.77 in 6.2 mi NW 13.8 mph - N/A   Mostly Cloudy
5:00 AM 89 °F - 53 °F 20% 29.75 in 4 mi North 20.7 mph - -   Blowing Sand
5:00 AM 89.6 °F 87.3 °F 53.6 °F 29% 29.74 in 3.7 mi North 20.7 mph - N/A   Mostly Cloudy
6:00 AM 87.8 °F 86.1 °F 55.4 °F 33% 29.74 in 3.7 mi North 25.3 mph - N/A   Mostly Cloudy
7:00 AM 86.0 °F 84.9 °F 57.2 °F 37% 29.74 in 3.7 mi NNW 21.9 mph - N/A   Mostly Cloudy
8:00 AM 88 °F - 53 °F 21% 29.76 in 4 mi NW 15.0 mph - -   Blowing Sand
8:00 AM 87.8 °F 85.7 °F 53.6 °F 31% 29.74 in 3.7 mi NW 15.0 mph - N/A   Mostly Cloudy
9:00 AM 91.4 °F 89.4 °F 55.4 °F 29% 29.77 in 3.7 mi North 12.7 mph - N/A   Mostly Cloudy
10:00 AM 93.2 °F - 51.8 °F 24% 29.80 in 3.7 mi NNW 6.9 mph - N/A   Mostly Cloudy
11:00 AM 95.0 °F 92.7 °F 53.6 °F 25% 29.77 in 3.7 mi NNW 6.9 mph - N/A   Mostly Cloudy
12:00 PM 100.4 °F - 50.0 °F 18% 29.77 in 5.0 mi North 10.4 mph - N/A   Mostly Cloudy
2:00 PM 101 °F - 51 °F 11% 29.74 in 5 mi NNE 9.2 mph - -   Widespread Dust
2:00 PM 102.2 °F - 51.8 °F 18% 29.74 in 5.0 mi NNE 9.2 mph - N/A   Mostly Cloudy
3:00 PM 95.0 °F 94.4 °F 59.0 °F 30% 29.71 in 3.7 mi North 13.8 mph - N/A   Mostly Cloudy
4:00 PM 93.2 °F 92.6 °F 59.0 °F 32% 29.71 in 3.7 mi North 12.7 mph - N/A   Mostly Cloudy
4:35 PM 96.8 °F - 51.8 °F 22% 29.74 in 0.5 mi WNW 34.5 mph - N/A   Sandstorm
5:00 PM 96.8 °F - 51.8 °F 22% 29.74 in 0.5 mi WNW 34.5 mph - N/A   Sandstorm
6:00 PM 95.0 °F - 51.8 °F 23% 29.74 in 3.7 mi WSW 16.1 mph - N/A   Mostly Cloudy
7:00 PM 91.4 °F 89.9 °F 57.2 °F 31% 29.74 in 6.2 mi NNE 6.9 mph - N/A   Mostly Cloudy
8:00 PM 90 °F - 55 °F 21% 29.78 in 6 mi NNE 3.5 mph - -   Scattered Clouds
8:00 PM 89.6 °F 87.7 °F 55.4 °F 31% 29.77 in 6.2 mi NNE 3.5 mph - N/A   Mostly Cloudy
9:00 PM 87.8 °F 88.5 °F 62.6 °F 43% 29.77 in 6.2 mi North 17.3 mph - N/A   Mostly Cloudy
10:00 PM 86.0 °F 88.2 °F 66.2 °F 51% 29.80 in 6.2 mi NW 9.2 mph - N/A   Mostly Cloudy
11:00 PM 84 °F - 65 °F 44% 29.81 in 6 mi North 13.8 mph - -   Scattered Clouds
11:00 PM 84.2 °F 86.6 °F 66.2 °F 55% 29.80 in 6.2 mi North 13.8 mph - N/A   Mostly Cloudy